Time,TemperatureF,DewpointF,PressureIn,WindDirection,WindDirectionDegrees,WindSpeedMPH,WindSpeedGustMPH,Humidity,HourlyPrecipIn,Conditions,Clouds,dailyrainin,SoftwareType,DateUTC
2013-07-07 00:02:00,87.8,50.0,29.90,SSW,207,0.0,2.0,27,0.00,,,0.00,weatherlink.com 1.10,2013-07-07 06:02:00,
2013-07-07 00:17:00,88.2,50.0,29.91,NW,317,2.0,8.0,27,0.00,,,0.00,weatherlink.com 1.10,2013-07-07 06:17:00,
2013-07-07 00:32:00,87.8,51.0,29.91,NW,309,5.0,15.0,28,0.00,,,0.00,weatherlink.com 1.10,2013-07-07 06:32:00,
2013-07-07 00:47:00,88.0,53.0,29.91,West,265,9.0,13.0,30,0.00,,,0.00,weatherlink.com 1.10,2013-07-07 06:47:00,
2013-07-07 01:03:00,87.0,54.0,29.91,WNW,286,11.0,20.0,32,0.00,,,0.00,weatherlink.com 1.10,2013-07-07 07:03:00,
2013-07-07 01:18:00,86.8,53.0,29.91,WNW,290,5.0,18.0,32,0.00,,,0.00,weatherlink.com 1.10,2013-07-07 07:18:00,
2013-07-07 01:33:00,86.6,52.0,29.91,NW,306,7.0,13.0,31,0.00,,,0.00,weatherlink.com 1.10,2013-07-07 07:33:00,
2013-07-07 01:48:00,87.2,52.0,29.91,West,269,2.0,11.0,30,0.00,,,0.00,weatherlink.com 1.10,2013-07-07 07:48:00,
2013-07-07 02:03:00,87.2,52.0,29.91,ESE,123,4.0,9.0,30,0.00,,,0.00,weatherlink.com 1.10,2013-07-07 08:03:00,
2013-07-07 02:18:00,85.9,55.0,29.91,SE,130,0.0,4.0,35,0.00,,,0.00,weatherlink.com 1.10,2013-07-07 08:18:00,
2013-07-07 02:34:00,85.1,54.0,29.91,SSW,207,3.0,3.0,34,0.00,,,0.00,weatherlink.com 1.10,2013-07-07 08:34:00,
2013-07-07 02:49:00,85.0,53.0,29.91,SSW,207,0.0,1.0,34,0.00,,,0.00,weatherlink.com 1.10,2013-07-07 08:49:00,
2013-07-07 03:04:00,84.4,55.0,29.91,SSW,207,0.0,0.0,37,0.00,,,0.00,weatherlink.com 1.10,2013-07-07 09:04:00,
2013-07-07 03:19:00,84.1,53.0,29.93,NW,323,5.0,5.0,35,0.00,,,0.00,weatherlink.com 1.10,2013-07-07 09:19:00,
2013-07-07 03:34:00,84.2,53.0,29.94,North,355,4.0,11.0,34,0.00,,,0.00,weatherlink.com 1.10,2013-07-07 09:34:00,
2013-07-07 03:49:00,83.8,52.0,29.94,NNW,348,9.0,22.0,34,0.00,,,0.00,weatherlink.com 1.10,2013-07-07 09:49:00,
2013-07-07 04:05:00,82.3,54.0,29.94,NW,318,11.0,15.0,38,0.00,,,0.00,weatherlink.com 1.10,2013-07-07 10:05:00,
2013-07-07 04:20:00,81.2,54.0,29.94,NW,313,10.0,16.0,39,0.00,,,0.00,weatherlink.com 1.10,2013-07-07 10:20:00,
2013-07-07 04:35:00,80.5,54.0,29.94,NNW,329,9.0,15.0,40,0.00,,,0.00,weatherlink.com 1.10,2013-07-07 10:35:00,
2013-07-07 04:50:00,80.3,54.0,29.95,NW,315,5.0,14.0,40,0.00,,,0.00,weatherlink.com 1.10,2013-07-07 10:50:00,
2013-07-07 05:06:00,80.0,54.0,29.95,NW,307,5.0,10.0,40,0.00,,,0.00,weatherlink.com 1.10,2013-07-07 11:06:00,
2013-07-07 05:21:00,79.8,54.0,29.96,NW,311,4.0,7.0,41,0.00,,,0.00,weatherlink.com 1.10,2013-07-07 11:21:00,
2013-07-07 05:36:00,79.8,54.0,29.96,NW,313,4.0,9.0,41,0.00,,,0.00,weatherlink.com 1.10,2013-07-07 11:36:00,
2013-07-07 05:51:00,79.5,54.0,29.96,NW,320,6.0,11.0,42,0.00,,,0.00,weatherlink.com 1.10,2013-07-07 11:51:00,
2013-07-07 06:06:00,79.0,55.0,29.97,NW,309,4.0,9.0,43,0.00,,,0.00,weatherlink.com 1.10,2013-07-07 12:06:00,
2013-07-07 06:21:00,79.0,55.0,29.97,WNW,298,4.0,10.0,44,0.00,,,0.00,weatherlink.com 1.10,2013-07-07 12:21:00,
2013-07-07 06:37:00,79.1,55.0,29.97,NW,316,6.0,7.0,44,0.00,,,0.00,weatherlink.com 1.10,2013-07-07 12:37:00,
2013-07-07 06:52:00,79.6,56.0,29.97,NW,323,4.0,6.0,44,0.00,,,0.00,weatherlink.com 1.10,2013-07-07 12:52:00,
2013-07-07 07:07:00,80.4,56.0,29.98,NW,311,1.0,6.0,43,0.00,,,0.00,weatherlink.com 1.10,2013-07-07 13:07:00,
2013-07-07 07:22:00,81.0,56.0,29.98,NW,323,4.0,6.0,43,0.00,,,0.00,weatherlink.com 1.10,2013-07-07 13:22:00,
2013-07-07 07:37:00,81.6,56.0,29.98,NW,319,3.0,6.0,42,0.00,,,0.00,weatherlink.com 1.10,2013-07-07 13:37:00,
2013-07-07 07:53:00,82.8,54.0,29.99,ENE,66,0.0,5.0,37,0.00,,,0.00,weatherlink.com 1.10,2013-07-07 13:53:00,
2013-07-07 08:08:00,83.4,54.0,30.00,NE,52,2.0,4.0,37,0.00,,,0.00,weatherlink.com 1.10,2013-07-07 14:08:00,
2013-07-07 08:23:00,83.2,54.0,30.00,SE,128,3.0,3.0,37,0.00,,,0.00,weatherlink.com 1.10,2013-07-07 14:23:00,
2013-07-07 08:38:00,84.6,55.0,30.00,SE,141,2.0,5.0,36,0.00,,,0.00,weatherlink.com 1.10,2013-07-07 14:38:00,
2013-07-07 08:53:00,86.2,55.0,30.00,SSE,162,1.0,8.0,34,0.00,,,0.00,weatherlink.com 1.10,2013-07-07 14:53:00,
2013-07-07 09:08:00,87.4,54.0,30.00,South,184,4.0,7.0,32,0.00,,,0.00,weatherlink.com 1.10,2013-07-07 15:08:00,
2013-07-07 09:23:00,88.5,54.0,30.00,SSE,164,2.0,7.0,31,0.00,,,0.00,weatherlink.com 1.10,2013-07-07 15:23:00,
2013-07-07 09:39:00,90.7,53.0,30.00,South,178,4.0,11.0,28,0.00,,,0.00,weatherlink.com 1.10,2013-07-07 15:39:00,
2013-07-07 09:54:00,90.8,52.0,30.00,South,184,3.0,10.0,27,0.00,,,0.00,weatherlink.com 1.10,2013-07-07 15:54:00,
2013-07-07 10:09:00,92.0,51.0,30.00,SE,136,11.0,11.0,25,0.00,,,0.00,weatherlink.com 1.10,2013-07-07 16:09:00,
2013-07-07 10:24:00,93.3,51.0,30.00,SE,130,7.0,10.0,24,0.00,,,0.00,weatherlink.com 1.10,2013-07-07 16:24:00,
2013-07-07 10:39:00,92.8,52.0,30.00,South,186,7.0,8.0,25,0.00,,,0.00,weatherlink.com 1.10,2013-07-07 16:39:00,
2013-07-07 10:55:00,94.6,51.0,29.99,ENE,67,5.0,10.0,23,0.00,,,0.00,weatherlink.com 1.10,2013-07-07 16:55:00,
2013-07-07 11:10:00,95.5,51.0,29.99,South,185,2.0,10.0,22,0.00,,,0.00,weatherlink.com 1.10,2013-07-07 17:10:00,
2013-07-07 11:25:00,96.0,50.0,29.99,NE,55,2.0,10.0,21,0.00,,,0.00,weatherlink.com 1.10,2013-07-07 17:25:00,
2013-07-07 11:40:00,97.1,51.0,29.99,ENE,65,3.0,9.0,21,0.00,,,0.00,weatherlink.com 1.10,2013-07-07 17:40:00,
2013-07-07 11:56:00,98.0,51.0,29.99,South,180,5.0,11.0,21,0.00,,,0.00,weatherlink.com 1.10,2013-07-07 17:56:00,
2013-07-07 12:11:00,98.8,51.0,29.98,SSE,154,6.0,13.0,20,0.00,,,0.00,weatherlink.com 1.10,2013-07-07 18:11:00,
2013-07-07 12:26:00,98.8,51.0,29.98,SSE,165,2.0,8.0,20,0.00,,,0.00,weatherlink.com 1.10,2013-07-07 18:26:00,
2013-07-07 12:41:00,99.3,51.0,29.97,SW,232,3.0,11.0,20,0.00,,,0.00,weatherlink.com 1.10,2013-07-07 18:41:00,
2013-07-07 12:56:00,101.3,51.0,29.96,SE,129,3.0,11.0,19,0.00,,,0.00,weatherlink.com 1.10,2013-07-07 18:56:00,
2013-07-07 13:12:00,101.7,50.0,29.96,SE,135,0.0,21.0,18,0.00,,,0.00,weatherlink.com 1.10,2013-07-07 19:12:00,
2013-07-07 13:27:00,100.9,51.0,29.95,SE,144,9.0,9.0,19,0.00,,,0.00,weatherlink.com 1.10,2013-07-07 19:27:00,
2013-07-07 13:42:00,101.7,50.0,29.95,East,89,8.0,10.0,18,0.00,,,0.00,weatherlink.com 1.10,2013-07-07 19:42:00,
2013-07-07 13:57:00,102.7,50.0,29.94,SSW,196,1.0,10.0,17,0.00,,,0.00,weatherlink.com 1.10,2013-07-07 19:57:00,
2013-07-07 14:12:00,102.9,50.0,29.94,SSE,168,4.0,5.0,17,0.00,,,0.00,weatherlink.com 1.10,2013-07-07 20:12:00,
2013-07-07 14:28:00,102.2,51.0,29.94,East,99,3.0,8.0,18,0.00,,,0.00,weatherlink.com 1.10,2013-07-07 20:28:00,
2013-07-07 14:43:00,103.6,50.0,29.93,ESE,113,0.0,8.0,17,0.00,,,0.00,weatherlink.com 1.10,2013-07-07 20:43:00,
2013-07-07 14:58:00,102.1,47.0,29.93,NNE,26,1.0,11.0,16,0.00,,,0.00,weatherlink.com 1.10,2013-07-07 20:58:00,
2013-07-07 15:13:00,103.6,50.0,29.92,ESE,109,7.0,10.0,17,0.00,,,0.00,weatherlink.com 1.10,2013-07-07 21:13:00,
2013-07-07 15:28:00,102.9,48.0,29.91,South,171,3.0,5.0,16,0.00,,,0.00,weatherlink.com 1.10,2013-07-07 21:28:00,
2013-07-07 15:43:00,104.2,51.0,29.90,WSW,241,1.0,9.0,17,0.00,,,0.00,weatherlink.com 1.10,2013-07-07 21:43:00,
2013-07-07 15:59:00,105.2,50.0,29.89,SSW,200,9.0,13.0,16,0.00,,,0.00,weatherlink.com 1.10,2013-07-07 21:59:00,
2013-07-07 16:14:00,104.4,49.0,29.89,WNW,300,3.0,10.0,16,0.00,,,0.00,weatherlink.com 1.10,2013-07-07 22:14:00,
2013-07-07 16:29:00,102.2,51.0,29.89,East,99,16.0,27.0,18,0.00,,,0.00,weatherlink.com 1.10,2013-07-07 22:29:00,
2013-07-07 16:44:00,99.0,51.0,29.90,SSE,150,12.0,25.0,20,0.00,,,0.00,weatherlink.com 1.10,2013-07-07 22:44:00,
2013-07-07 16:59:00,102.2,49.0,29.89,East,94,15.0,21.0,17,0.00,,,0.00,weatherlink.com 1.10,2013-07-07 22:59:00,
2013-07-07 17:15:00,101.4,48.0,29.89,ESE,108,10.0,19.0,17,0.00,,,0.00,weatherlink.com 1.10,2013-07-07 23:15:00,
2013-07-07 17:30:00,102.0,47.0,29.89,SSE,151,8.0,21.0,16,0.00,,,0.00,weatherlink.com 1.10,2013-07-07 23:30:00,
2013-07-07 17:45:00,100.7,48.0,29.89,ESE,115,11.0,19.0,17,0.00,,,0.00,weatherlink.com 1.10,2013-07-07 23:45:00,
2013-07-07 18:00:00,100.1,49.0,29.89,East,91,9.0,15.0,18,0.00,,,0.00,weatherlink.com 1.10,2013-07-08 00:00:00,
2013-07-07 18:16:00,98.4,49.0,29.89,SE,142,11.0,17.0,19,0.00,,,0.00,weatherlink.com 1.10,2013-07-08 00:16:00,
2013-07-07 18:31:00,97.8,49.0,29.89,ESE,112,7.0,13.0,19,0.00,,,0.00,weatherlink.com 1.10,2013-07-08 00:31:00,
2013-07-07 18:46:00,96.9,48.0,29.90,ESE,115,7.0,14.0,19,0.00,,,0.00,weatherlink.com 1.10,2013-07-08 00:46:00,
2013-07-07 19:01:00,96.4,47.0,29.90,ESE,122,11.0,15.0,19,0.00,,,0.00,weatherlink.com 1.10,2013-07-08 01:01:00,
2013-07-07 19:16:00,95.9,48.0,29.90,East,84,9.0,15.0,20,0.00,,,0.00,weatherlink.com 1.10,2013-07-08 01:16:00,
2013-07-07 19:32:00,95.4,49.0,29.91,ESE,105,5.0,13.0,21,0.00,,,0.00,weatherlink.com 1.10,2013-07-08 01:32:00,
2013-07-07 19:47:00,94.6,49.0,29.92,ESE,104,7.0,13.0,21,0.00,,,0.00,weatherlink.com 1.10,2013-07-08 01:47:00,
2013-07-07 20:02:00,94.3,46.0,29.92,East,98,13.0,14.0,19,0.00,,,0.00,weatherlink.com 1.10,2013-07-08 02:02:00,
2013-07-07 20:17:00,93.7,45.0,29.93,ESE,115,3.0,13.0,19,0.00,,,0.00,weatherlink.com 1.10,2013-07-08 02:17:00,
2013-07-07 20:32:00,93.2,45.0,29.93,East,91,8.0,15.0,19,0.00,,,0.00,weatherlink.com 1.10,2013-07-08 02:32:00,
2013-07-07 20:47:00,92.4,44.0,29.94,ESE,110,3.0,13.0,19,0.00,,,0.00,weatherlink.com 1.10,2013-07-08 02:47:00,
2013-07-07 21:03:00,91.5,45.0,29.95,East,94,2.0,10.0,20,0.00,,,0.00,weatherlink.com 1.10,2013-07-08 03:03:00,
2013-07-07 21:18:00,90.8,45.0,29.96,ESE,103,1.0,10.0,21,0.00,,,0.00,weatherlink.com 1.10,2013-07-08 03:18:00,
2013-07-07 21:33:00,90.2,47.0,29.97,East,98,3.0,10.0,23,0.00,,,0.00,weatherlink.com 1.10,2013-07-08 03:33:00,
2013-07-07 21:48:00,89.7,47.0,29.98,ESE,122,5.0,9.0,23,0.00,,,0.00,weatherlink.com 1.10,2013-07-08 03:48:00,
2013-07-07 22:03:00,88.8,46.0,29.99,ESE,107,2.0,4.0,23,0.00,,,0.00,weatherlink.com 1.10,2013-07-08 04:03:00,
2013-07-07 22:19:00,88.3,47.0,29.99,SE,140,2.0,13.0,24,0.00,,,0.00,weatherlink.com 1.10,2013-07-08 04:19:00,
2013-07-07 22:34:00,87.9,47.0,30.00,SSE,152,6.0,15.0,24,0.00,,,0.00,weatherlink.com 1.10,2013-07-08 04:34:00,
2013-07-07 22:49:00,87.5,47.0,30.00,SE,146,6.0,11.0,25,0.00,,,0.00,weatherlink.com 1.10,2013-07-08 04:49:00,
2013-07-07 23:04:00,86.8,48.0,30.00,South,177,5.0,9.0,26,0.00,,,0.00,weatherlink.com 1.10,2013-07-08 05:04:00,
2013-07-07 23:19:00,86.4,48.0,30.01,SSE,165,5.0,7.0,27,0.00,,,0.00,weatherlink.com 1.10,2013-07-08 05:19:00,
2013-07-07 23:34:00,86.2,48.0,30.02,South,175,4.0,10.0,27,0.00,,,0.00,weatherlink.com 1.10,2013-07-08 05:34:00,
2013-07-07 23:50:00,85.9,49.0,30.02,SSE,147,2.0,14.0,28,0.00,,,0.00,weatherlink.com 1.10,2013-07-08 05:50:00,